This is the latest recevied weather packets stored in our database for station/object KC3DGM. If no packets are shown the sender has not sent any weather packets the latest 10 day(s).
| Time | Temp. | Humidity | Pressure | Rain* | Wind** | Luminosity | Snow |
|---|---|---|---|---|---|---|---|
| 1778286436 | 9.44° C | 94% | 982 hPa | 3.05 mm | - | 0 W/m² | - |
| 1778286134 | 9.44° C | 94% | 981.9 hPa | 3.05 mm | - | 0 W/m² | - |
| 1778285831 | 9.44° C | 93% | 982.1 hPa | 1.78 mm | - | 0 W/m² | - |
| 1778285527 | 9.44° C | 92% | 982 hPa | 1.78 mm | - | 0 W/m² | - |
| 1778285225 | 9.44° C | 91% | 981.9 hPa | 3.05 mm | - | 0 W/m² | - |
| 1778284922 | 10° C | 91% | 982.2 hPa | 4.32 mm | - | 0 W/m² | - |
| 1778284619 | 10° C | 89% | 982.3 hPa | 4.83 mm | - | 0 W/m² | - |
| 1778284315 | 10° C | 88% | 982.3 hPa | 3.05 mm | - | 0 W/m² | - |
| 1778284013 | 10.56° C | 85% | 982.2 hPa | 1.27 mm | - | 1 W/m² | - |
| 1778283709 | 11.11° C | 82% | 982.2 hPa | 0 mm | - | 0 W/m² | - |
| 1778283409 | 11.67° C | 79% | 981.9 hPa | 0 mm | - | 1 W/m² | - |
| 1778283106 | 11.67° C | 77% | 982 hPa | 0 mm | - | 3 W/m² | - |
| 1778282803 | 11.67° C | 77% | 981.7 hPa | 0 mm | - | 2 W/m² | - |
| 1778282499 | 11.67° C | 75% | 981.7 hPa | 0 mm | - | 5 W/m² | - |
| 1778282197 | 11.67° C | 76% | 981.6 hPa | 0 mm | - | 5 W/m² | - |
| 1778281894 | 12.22° C | 75% | 981.4 hPa | 0 mm | - | 5 W/m² | - |
| 1778281590 | 12.22° C | 76% | 981.4 hPa | 0 mm | - | 8 W/m² | - |
| 1778281287 | 12.22° C | 74% | 981.7 hPa | 0 mm | - | 11 W/m² | - |
| 1778280985 | 12.22° C | 74% | 981.4 hPa | 0 mm | - | 11 W/m² | - |
| 1778280681 | 12.22° C | 75% | 981.6 hPa | 0 mm | - | 10 W/m² | - |
| 1778280379 | 12.22° C | 74% | 981.5 hPa | 0 mm | - | 24 W/m² | - |
| 1778280076 | 12.78° C | 74% | 981.5 hPa | 0 mm | - | 36 W/m² | - |
| 1778279774 | 12.78° C | 74% | 981.6 hPa | 0 mm | - | 35 W/m² | - |
| 1778279471 | 12.78° C | 73% | 981.4 hPa | 0 mm | - | 55 W/m² | - |
| 1778279168 | 12.22° C | 74% | 981.6 hPa | 0 mm | - | 52 W/m² | - |
* Rain latest hour (hover to see other rain measurements)
** Current wind speed in m/s (hover to see current wind gust speed)